Regional Weather Roundup
Issued by NWS Burlington, VT

Home | Current Version | Previous Version | Text Only | Print | Product List | Glossary On
Versions: 1 2 3 4 5 6 7 8 9 10 11 12 13 14 15 16 17 18 19 20 21 22 23 24 25 26 27 28 29 30 31 32 33 34 35 36 37 38 39 40 41 42 43 44 45 46 47 48 49 50
000
ASUS41 KBTV 261030
RWRBTV
VERMONT REGIONAL WEATHER ROUNDUP
NATIONAL WEATHER SERVICE BURLINGTON VT
600 AM EDT TUE MAY 26 2015

NOTE: "FAIR" INDICATES FEW OR NO CLOUDS BELOW 12,000 FEET WITH NO
SIGNIFICANT WEATHER AND/OR OBSTRUCTIONS TO VISIBILITY.

* THESE REPORTS ARE NOT UNDER NWS QUALITY CONTROL AND/OR DO NOT
  REPORT WEATHER SUCH AS PRECIPITATION AND FOG.

VTZ001>019-261100-
_____VERMONT_____


CITY           SKY/WX    TMP DP  RH WIND       PRES   REMARKS
BURLINGTON     CLOUDY    72  59  63 S8        30.00R
MONTPELIER     CLOUDY    69  57  65 SW10G21   30.08S
MORRISVILLE    CLOUDY    68  61  78 CALM      30.04S
ST. JOHNSBURY*   N/A     60  59  96 MISG      30.03R
LYNDONVILLE*   CLOUDY    64  58  79 S5        30.07S
MIDDLEBURY*    CLOUDY    72  58  62 S8        30.05R
RUTLAND*       MOSUNNY   72  55  56 SW8       30.09R
SPRINGFIELD    PTSUNNY   61  57  87 W3        30.09R
HIGHGATE*      CLOUDY    69  61  76 S6        29.97R
NEWPORT*       PTSUNNY   63  60  91 S5        30.03R
BENNINGTON     PTSUNNY   65  58  78 CALM      30.11R
SUTTON*          N/A     61 N/A N/A MISG        N/A
GALLUP MILLS*    N/A     57 N/A N/A MISG        N/A
MT. MANSFIELD*   N/A     55 N/A N/A CALM        N/A

_____LAKE CHAMPLAIN_____


CITY           SKY/WX    TMP DP  RH WIND       PRES   REMARKS
BURTON ISLAND*   N/A     66  59  77 S10         N/A
COLCHESTER RF*   N/A     68  59  73 SW12        N/A
DIAMOND ISL*     N/A     68  61  77 S8          N/A

$$

NYZ007-026>031-035-052-083-261100-
_____NORTHERN NEW YORK_____


CITY           SKY/WX    TMP DP  RH WIND       PRES   REMARKS
PLATTSBURGH    PTSUNNY   69  63  81 SW9       29.97S
SARANAC LAKE   LGT RAIN  63  62  97 SW12      30.05R
MASSENA        CLOUDY    67  62  84 SW13      29.99R
OGDENSBURG*    SUNNY     66  63  88 SW9       30.01R
POTSDAM*       CLOUDY    66  64  94 SW12      30.02R
STARK FALLS*     N/A     66 N/A N/A SW8         N/A
WATERTOWN      CLOUDY    66  62  87 SW7       30.04R
FT DRUM        CLOUDY    67  67 100 SW12G18   30.04R
ALBANY         MOSUNNY   71  58  63 S10       30.10R
GLENS FALLS    MOSUNNY   69  58  67 S7        30.07R

$$
NHZ002-005-011-261100-
_____NEW HAMPSHIRE_____


CITY           SKY/WX    TMP DP  RH WIND       PRES   REMARKS
LEBANON        MOSUNNY   66  58  75 S12       30.06R
KEENE          PTSUNNY  N/A N/A N/A CALM      30.13R
MT WASHINGTON  FOG       48  48 100 W55G61      N/A  VSB 0
PLYMOUTH       FOG       58  58 100 CALM      30.08R VSB<1/4
WHITEFIELD     CLOUDY    60  58  92 W3        30.06R FOG

$$

_____REGIONAL QUEBEC LOCATIONS_____


CITY           SKY/WX    TMP DP  RH WIND       PRES   REMARKS
MONTREAL       PTSUNNY   66  64  94 SW15      29.95R
QUEBEC CITY    DRZL/FOG  59  59 100 NE3       29.90S VSB 1
SHERBROOKE     CLOUDY    63  61  94 SW9       29.97R

_____REGIONAL ONTARIO LOCATIONS_____


CITY           SKY/WX    TMP DP  RH WIND       PRES   REMARKS
OTTAWA         PTSUNNY   64  63  94 SW10G17   29.95R

______KEY______
VSB  - VISIBILITY IN MILES
WCI  - WIND CHILL INDEX
HX   - HEAT INDEX
$$
NNNN


USA.gov is the U.S. government's official web portal to all federal, state and local government web resources and services.